Content
SEND FEEDBACK

Daily
Averages
Monthly
Summary
United States of America

ST. CROIX FALLS, WISCONSIN


Home > North America > United States > Wisconsin
Elevation: 969 feet     Latitude: 45 25N     Longitude: 092 39W

WEATHER
 
SELECT A DAY
Number of Records: 396,842;   Date Range: 5/11/98 - 8/12/14
 
SHARE

PRINT THIS DATA

[ ← Previous Day ]
WEATHER ALMANAC - JANUARY 23, 2013
[ Next Day → ]
[ °C ]   °F
Weather ElementAverageHighLow
Temperature4.9 °F14 °F (11:35 am)-5.8 °F (10:35 pm)
Dewpoint-4.3 °F6.8 °F (10:35 am)-16.6 °F (9:55 pm)
Humidity66.7 %85 % (5:15 am)47 % (4:55 pm)
Barometer30.30 in30.63 in (11:35 pm)30.16 in (6:55 am)
Wind Speed7.8 mph23 mph (2:55 pm)
Wind Gust33.4 mph (2:55 pm)
Weather ElementAverage
Visibility8.3 mi
Wind DirectionSSW (207.9 °)

Weather ElementTotal
Precipitation---
Heating Degree Days60.9 (Base 65)
Averaged from 71 records on January 23, 2013
WEATHER CONDITIONS BREAKOUT
WIND DIRECTION BREAKOUT
WEATHER BY HOUR - JANUARY 23, 2013
[ °C ]   °F
Local TimeTemperatureDewpointHumidityBarometerVisibilityWind DirectionWind SpeedGust SpeedPrecipitationEventsConditions
12:35 AM1.4 °F-5.8 °F72 %30.25 in10.0 miCalmOvercast
12:55 AM1.4 °F-5.8 °F72 %30.25 in10.0 miCalmOvercast
1:15 AM1.4 °F-4.0 °F78 %30.24 in10.0 miCalmOvercast
1:35 AM3.2 °F-4.0 °F72 %30.23 in10.0 miCalmOvercast
1:55 AM3.2 °F-4.0 °F72 %30.22 in10.0 miCalmOvercast
2:15 AM3.2 °F-2.2 °F78 %30.23 in10.0 miCalmOvercast
2:35 AM5.0 °F-2.2 °F72 %30.22 in10.0 miCalmOvercast
2:55 AM5.0 °F-0.4 °F78 %30.21 in10.0 miCalmOvercast
3:15 AM5.0 °F-2.2 °F72 %30.21 in10.0 miSSW (210°)3.5 mphOvercast
3:35 AM5.0 °F-2.2 °F72 %30.20 in10.0 miCalmOvercast
3:55 AM5.0 °F-0.4 °F78 %30.20 in10.0 miCalmOvercast
4:15 AM5.0 °F-0.4 °F78 %30.19 in10.0 miCalmOvercast
4:35 AM5.0 °F-0.4 °F78 %30.18 in10.0 miCalmOvercast
4:55 AM5.0 °F-0.4 °F78 %30.17 in10.0 miCalmOvercast
5:15 AM5.0 °F1.4 °F85 %30.17 in10.0 miCalmOvercast
5:35 AM6.8 °F1.4 °F79 %30.17 in10.0 miCalmOvercast
5:55 AM6.8 °F1.4 °F79 %30.17 in10.0 miCalmOvercast
6:15 AM6.8 °F1.4 °F79 %30.17 in7.0 miCalmSnowLight Snow
6:35 AM6.8 °F3.2 °F85 %30.17 in7.0 miCalmSnowLight Snow
6:55 AM6.8 °F3.2 °F85 %30.16 in5.0 miCalmSnowLight Snow
7:15 AM6.8 °F3.2 °F85 %30.16 in2.5 miCalmSnowLight Snow
7:35 AM6.8 °F3.2 °F85 %30.16 in1.2 miCalmSnowLight Snow
7:55 AM6.8 °F3.2 °F85 %30.16 in1.0 miCalmSnowLight Snow
8:15 AM6.8 °F3.2 °F85 %30.17 in1.2 miWSW (240°)3.5 mphSnowLight Snow
8:35 AM6.8 °F3.2 °F85 %30.17 in1.8 miCalmSnowLight Snow
8:55 AM8.6 °F3.2 °F79 %30.16 in2.5 miCalmSnowLight Snow
9:15 AM8.6 °F5.0 °F85 %30.16 in3.0 miCalmSnowLight Snow
9:35 AM8.6 °F5.0 °F85 %30.17 in5.0 miWest (260°)4.6 mphSnowLight Snow
9:55 AM10.4 °F5.0 °F79 %30.16 in5.0 miWest (260°)5.8 mphSnowLight Snow
10:15 AM10.4 °F5.0 °F79 %30.17 in7.0 miWest (270°)6.9 mphOvercast
10:35 AM12.2 °F6.8 °F79 %30.17 in10.0 miWest (280°)11.5 mphOvercast
10:55 AM12.2 °F5.0 °F73 %30.18 in4.0 miWNW (300°)12.7 mph18.4 mphHaze
11:15 AM12.2 °F6.8 °F79 %30.17 in5.0 miWNW (300°)11.5 mphSnowLight Snow
11:35 AM14.0 °F5.0 °F67 %30.17 in10.0 miWNW (290°)10.4 mphScattered Clouds
11:55 AM14.0 °F5.0 °F67 %30.16 in10.0 miWNW (290°)12.7 mph18.4 mphMostly Cloudy
12:15 PM14.0 °F5.0 °F67 %30.16 in10.0 miNW (310°)18.4 mph24.2 mphMostly Cloudy
12:35 PM14.0 °F5.0 °F67 %30.17 in7.0 miNW (310°)15.0 mphOvercast
12:55 PM14.0 °F3.2 °F62 %30.16 in5.0 miWNW (300°)17.3 mph25.3 mphHaze
1:15 PM14.0 °F3.2 °F62 %30.17 in5.0 miNW (310°)17.3 mph26.5 mphHaze
1:35 PM12.2 °F1.4 °F62 %30.18 in7.0 miNW (320°)15.0 mphOvercast
1:55 PM12.2 °F-0.4 °F57 %30.19 in10.0 miNW (320°)19.6 mph28.8 mphMostly Cloudy
2:15 PM12.2 °F-0.4 °F57 %30.21 in5.0 miNW (320°)19.6 mph24.2 mphHaze
2:35 PM12.2 °F-2.2 °F53 %30.22 in5.0 miNW (320°)17.3 mph28.8 mphHaze
2:55 PM10.4 °F-5.8 °F48 %30.25 in7.0 miNNW (330°)23.0 mph33.4 mphScattered Clouds
3:15 PM8.6 °F-7.6 °F48 %30.27 in7.0 miNNW (330°)23.0 mph29.9 mphClear
3:35 PM8.6 °F-5.8 °F52 %30.29 in10.0 miNW (320°)21.9 mph28.8 mphClear
3:55 PM6.8 °F-5.8 °F56 %30.31 in10.0 miNW (310°)15.0 mph25.3 mphMostly Cloudy
4:15 PM5.0 °F-5.8 °F61 %30.32 in10.0 miNW (320°)16.1 mph25.3 mphMostly Cloudy
4:35 PM5.0 °F-9.4 °F52 %30.34 in10.0 miNNW (330°)18.4 mph26.5 mphMostly Cloudy
4:55 PM5.0 °F-11.2 °F47 %30.36 in10.0 miNNW (330°)15.0 mph21.9 mphScattered Clouds
5:15 PM3.2 °F-11.2 °F51 %30.38 in10.0 miNNW (340°)12.7 mph24.2 mphClear
5:35 PM3.2 °F-11.2 °F51 %30.40 in10.0 miNNW (330°)11.5 mph21.9 mphClear
5:55 PM1.4 °F-14.8 °F47 %30.42 in10.0 miNorth (350°)12.7 mph25.3 mphClear
6:15 PM1.4 °F-14.8 °F47 %30.45 in10.0 miNNW (340°)12.7 mph24.2 mphClear
6:35 PM1.4 °F-14.8 °F47 %30.47 in10.0 miNorth (350°)16.1 mph23.0 mphClear
6:55 PM-0.4 °F-14.8 °F51 %30.48 in10.0 miNNW (340°)6.9 mphClear
7:15 PM-0.4 °F-14.8 °F51 %30.49 in10.0 miNorth (350°)8.1 mphClear
7:35 PM-0.4 °F-14.8 °F51 %30.51 in10.0 miNorth (350°)11.5 mphClear
7:55 PM-0.4 °F-14.8 °F51 %30.51 in10.0 miNorth (350°)11.5 mph18.4 mphClear
8:15 PM-0.4 °F-14.8 °F51 %30.53 in10.0 miNorth (360°)9.2 mphClear
8:35 PM-2.2 °F-14.8 °F55 %30.53 in10.0 miNorth (360°)9.2 mphClear
8:55 PM-4.0 °F-14.8 °F60 %30.55 in10.0 miNorth (360°)8.1 mphClear
9:15 PM-4.0 °F-14.8 °F60 %30.56 in10.0 miNNW (340°)8.1 mphClear
9:35 PM-4.0 °F-14.8 °F60 %30.56 in10.0 miNorth (350°)8.1 mphClear
9:55 PM-4.0 °F-16.6 °F55 %30.57 in10.0 miNorth (350°)8.1 mphClear
10:15 PM-4.0 °F-16.6 °F55 %30.57 in10.0 miNNW (340°)8.1 mphClear
10:35 PM-5.8 °F-16.6 °F60 %30.59 in10.0 miNNW (330°)8.1 mphClear
10:55 PM-5.8 °F-16.6 °F60 %30.60 in10.0 miNorth (350°)6.9 mphClear
11:15 PM-5.8 °F-16.6 °F60 %30.61 in10.0 miNorth (350°)6.9 mphClear
11:35 PM-5.8 °F-16.6 °F60 %30.63 in10.0 miNNW (340°)8.1 mphClear
11:55 PM-5.8 °F-16.6 °F60 %30.63 in10.0 miNorth (350°)6.9 mphClear
Hourly data recorded from KOEO, located miles away from St. Croix Falls, Wisconsin







STORIES FROM OUR PARTNERS